Weather History for Joplin, MO

Change the Weather History Date:

Friday, July 5, 2013

  Actual Average Record
Temperature  
Mean Temperature 77 °F 80 °F  
Max Temperature 90 °F 90 °F 105 °F (1954)
Min Temperature 63 °F 70 °F 51 °F (1972)
Degree Days  
Heating Degree Days 0 0  
Month to date heating degree days 0 0  
Since 1 June heating degree days 12 5  
Since 1 July heating degree days 0 0  
Cooling Degree Days 12 15  
Month to date cooling degree days 34 71  
Year to date cooling degree days 501 569  
Since 1 June cooling degree days 357 389  
Growing Degree Days 26 (Base 50)    
Moisture  
Dew Point 58 °F    
Average Humidity 54    
Maximum Humidity 73    
Minimum Humidity 34    
Precipitation  
Precipitation 0.00 in 0.14 in 2.00 in (1950)
Month to date precipitation 0.06 0.71  
Year to date precipitation 27.84 24.52  
Snow  
Snow 0.00 in - - ()
Month to date snowfall 0.0  
Since 1 June snowfall 0.0  
Snow Depth 0.00 in    
Sea Level Pressure  
Sea Level Pressure 29.97 in    
Wind  
Wind Speed 8 mph (SSE)    
Max Wind Speed 14 mph    
Max Gust Speed 20 mph    
Visibility 10 miles    
Events      
T = Trace of Precipitation, MM = Missing Value Source: NWS Daily Summary

Daily Weather History Graph

Daily Weather History Graph

Search for Another Location

Airport:

Trip Planner

Search our weather history database for the weather conditions in past years. The results will help you decide how hot, cold, wet, or windy it might be!

Date:

Astronomy

Jul. 05, 2013 Rise Set
Actual Time 6:03 AM CDT 8:41 PM CDT
Civil Twilight 5:33 AM CDT 9:11 PM CDT
Nautical Twilight 4:54 AM CDT 9:49 PM CDT
Astronomical Twilight 4:12 AM CDT 10:32 PM CDT
Moon 4:02 AM CDT (7/5) 6:38 PM CDT (7/5)
Length of Visible Light 15h 38m
Length of Day
14h 37m
Waning Crescent, 6% of the Moon is Illuminated
Jul 5
Waning Crescent
Jul 8
New
Jul 15
First Quarter
Jul 22
Full
Jul 29
Last Quarter

Hourly Weather History & Observations

Time (CDT) Temp. Heat Index Dew Point Humidity Pressure Visibility Wind Dir Wind Speed Gust Speed Precip Events Conditions
12:53 AM 69.1 °F - 57.0 °F 65% 29.99 in 10.0 mi SE 9.2 mph - N/A   Clear
1:53 AM 66.9 °F - 57.0 °F 70% 29.98 in 10.0 mi SE 9.2 mph - N/A   Clear
2:53 AM 66.0 °F - 55.9 °F 70% 29.97 in 10.0 mi SSE 6.9 mph - N/A   Clear
3:53 AM 64.0 °F - 55.9 °F 75% 29.97 in 10.0 mi SSE 5.8 mph - N/A   Clear
4:53 AM 64.9 °F - 55.9 °F 73% 29.98 in 10.0 mi SSE 5.8 mph - N/A   Clear
5:53 AM 64.9 °F - 55.0 °F 70% 29.99 in 10.0 mi SSE 4.6 mph - N/A   Clear
6:53 AM 64.9 °F - 55.9 °F 73% 30.00 in 10.0 mi SSE 5.8 mph - N/A   Clear
7:53 AM 69.1 °F - 57.9 °F 68% 30.01 in 10.0 mi SSE 5.8 mph - N/A   Clear
8:53 AM 73.9 °F - 59.0 °F 59% 30.02 in 10.0 mi South 6.9 mph - N/A   Clear
9:53 AM 79.0 °F - 61.0 °F 54% 30.02 in 10.0 mi South 8.1 mph - N/A   Clear
10:53 AM 82.9 °F 82.8 °F 59.0 °F 44% 30.00 in 10.0 mi SSW 10.4 mph - N/A   Clear
11:53 AM 86.0 °F 85.4 °F 59.0 °F 40% 29.99 in 10.0 mi SSW 9.2 mph - N/A   Clear
12:53 PM 87.1 °F 86.5 °F 59.0 °F 39% 30.00 in 10.0 mi SW 8.1 mph - N/A   Clear
1:53 PM 88.0 °F 87.1 °F 59.0 °F 37% 29.97 in 10.0 mi SSW 9.2 mph - N/A   Clear
2:53 PM 89.1 °F 88.2 °F 59.0 °F 36% 29.96 in 10.0 mi South 8.1 mph - N/A   Clear
3:53 PM 89.1 °F 88.2 °F 59.0 °F 36% 29.96 in 10.0 mi South 8.1 mph - N/A   Clear
4:53 PM 89.1 °F 87.7 °F 57.0 °F 34% 29.94 in 10.0 mi South 11.5 mph - N/A   Clear
5:53 PM 88.0 °F 86.7 °F 57.0 °F 35% 29.92 in 10.0 mi SSW 8.1 mph - N/A   Clear
6:53 PM 84.9 °F 83.7 °F 55.9 °F 37% 29.91 in 10.0 mi South 8.1 mph - N/A   Clear
7:53 PM 84.0 °F 83.3 °F 57.0 °F 40% 29.91 in 10.0 mi South 6.9 mph - N/A   Clear
8:53 PM 79.0 °F - 57.9 °F 48% 29.90 in 10.0 mi SE 5.8 mph - N/A   Clear
9:53 PM 78.1 °F - 59.0 °F 52% 29.92 in 10.0 mi SE 6.9 mph - N/A   Clear
10:53 PM 75.0 °F - 59.0 °F 57% 29.94 in 10.0 mi SSE 6.9 mph - N/A   Clear
11:53 PM 73.0 °F - 57.0 °F 57% 29.95 in 10.0 mi SSE 6.9 mph - N/A   Clear